Location: Memphis
(29.8667°N, 31.2500°E)
Time: 08:57:15
(UTC+00:00)

ERS-2 - Pass Details

Date: 03 March 2021
Orbit: 492 x 496 km, 98.6° (Epoch: 15 April)

Event Time Altitude Azimuth Distance (km) Brightness Sun altitude
Rises 16:52:16 0° 5° (N) 2,583 5.7 -13.1°
Reaches altitude 10° 16:54:24 10° 360° (N) 1,697 4.8 -13.5°
Maximum altitude 16:57:55 47° 285° (WNW) 660 3.2 -14.3°
Drops below altitude 10° 17:01:24 10° 211° (SSW) 1,688 5.2 -15.1°
Sets 17:03:31 0° 205° (SSW) 2,567 6.1 -15.5°
